Regional Weather Roundup
Issued by NWS

Home | Current Version | Previous Version | Text Only | Print | Product List | Glossary On
Versions: 1 2 3 4 5 6 7 8 9 10 11 12 13 14 15 16 17 18 19 20 21 22 23 24 25 26 27 28 29 30 31 32 33 34 35 36 37 38 39 40 41 42 43 44 45 46 47 48 49 50
825
ASUS45 KPSR 061410
RWRAZ

ARIZONA HOURLY REGIONAL WEATHER ROUNDUP
NATIONAL WEATHER SERVICE PHOENIX AZ
700 AM MST SAT FEB 06 2016

NOTE: FAIR INDICATES FEW OR NO CLOUDS BELOW 12,000 FEET WITH NO
SIGNIFICANT WEATHER AND/OR OBSTRUCTIONS TO VISIBILITY.

AZZ001>003-036-061500-
NORTHWEST ARIZONA

CITY           SKY/WX    TMP DP  RH WIND       PRES   REMARKS
BULLHEAD CITY  CLEAR     50  28  43 N22       30.42R
KINGMAN        CLEAR     32  32 100 E6        30.43S WCI  26
$$

AZZ004>008-015-016-018-061500-
NORTH CENTRAL ARIZONA

CITY           SKY/WX    TMP DP  RH WIND       PRES   REMARKS
GRAND CANYON   PTCLDY     8   3  80 CALM      30.47R
WILLIAMS       PTCLDY    18   3  53 S10       30.48R WCI   6
PRESCOTT       PTCLDY    22  14  71 SW7       30.43S WCI  13
FLAGSTAFF      PTCLDY     7   3  84 CALM      30.45F
PAYSON         CLEAR     36   3  25 CALM      30.42S
PAGE           PTCLDY    25  19  78 CALM      30.54R
$$

AZZ009>014-017-061500-
NORTHEAST ARIZONA

CITY           SKY/WX    TMP DP  RH WIND       PRES   REMARKS
WINSLOW        PTCLDY    15  12  88 SE3       30.52S
SAINT JOHNS    CLEAR     12   8  84 CALM      30.49S
WINDOW ROCK    CLEAR      6   0  76 S5        30.48R WCI  -3
SHOW LOW       FLURRIES  10   7  85 CALM      30.48S
$$

AZZ023-061500-
GREATER PHOENIX AREA

CITY           SKY/WX    TMP DP  RH WIND       PRES   REMARKS
PHOENIX        PTCLDY    44  24  45 NW3       30.34R
BUCKEYE        CLEAR     37  18  44 N7        30.36R WCI  32
GLENDALE       CLEAR     43  23  45 CALM      30.37
LUKE AFB       CLEAR     39  25  56 N7        30.34R WCI  34
DEER VALLEY    CLEAR     44  16  32 NE6       30.34R
SCOTTSDALE     CLEAR     40  21  46 CALM      30.35R
MESA-FALCON    CLEAR    N/A N/A N/A N12G17    30.33S
MESA-GATEWAY   CLEAR     36  21  55 VRB3      30.35R
CHANDLER       CLEAR     37  21  52 CALM      30.35R
$$

AZZ027-028-061500-
SOUTHWEST MARICOPA COUNTY AND PINAL COUNTY

CITY           SKY/WX    TMP DP  RH WIND       PRES   REMARKS
CASA GRANDE    PTCLDY    45  16  31 N3        30.34R
GILA BEND      FAIR      44  18  35 NE6       30.32R
$$

AZZ503-504-507>509-061500-
SOUTHEAST ARIZONA

CITY           SKY/WX    TMP DP  RH WIND       PRES   REMARKS
TUCSON         PTCLDY    48  11  22 SE13      30.33R
DAVIS-MONTHAN  PTCLDY    44  12  27 SE10      30.31R
RYAN FIELD     CLEAR     48  16  27 E13       30.32S
NOGALES        CLEAR     35  10  35 NE8       30.33R WCI  29
SIERRA VISTA   PTCLDY    31  13  47 SE7       30.38R WCI  24
DOUGLAS        PTCLDY    23  12  62 N9        30.39R WCI  13
SAFFORD        PTCLDY    33  12  41 CALM      30.42R
$$

AZZ020-021-025-026-031-061500-
SOUTHWEST ARIZONA

CITY           SKY/WX    TMP DP  RH WIND       PRES   REMARKS
YUMA           CLEAR     51  25  36 N9        30.34R
$$

CAZ031-033-041-043-047-048-061-061500-
SOUTHERN CALIFORNIA

CITY           SKY/WX    TMP DP  RH WIND       PRES   REMARKS
DOWNTOWN L.A.  CLEAR     50  28  42 N3        30.25S HAZE
L.A. AIRPORT   CLEAR     54  25  32 N7        30.25S
SAN DIEGO      CLEAR     52  30  43 CALM      30.26R
BURBANK        CLEAR     45  26  47 N5        30.25S
ONTARIO        CLEAR     43  25  49 CALM      30.25F
RIVERSIDE      CLEAR     48  24  39 VRB5      30.29F
PALM SPRINGS   CLEAR     50  27  40 CALM      30.38S
EL CENTRO NAS  PTCLDY    41  21  44 W8        30.37R
IMPERIAL       CLEAR     42  24  49 W8        30.36R
BLYTHE         CLEAR     46  25  43 NE5       30.39R
NEEDLES        CLEAR     50  26  39 N10       30.41R
$$

NVZ020-UTZ003-061500-
SOUTHERN NEVADA-UTAH

CITY           SKY/WX    TMP DP  RH WIND       PRES   REMARKS
LAS VEGAS      CLEAR     39  25  57 S6        30.42F WCI  35
SALT LAKE CITY MOCLDY    24  18  77 SE10      30.52R WCI  14
$$

NMZ009-TXZ055-061500-
NEW MEXICO-WEST TEXAS

CITY           SKY/WX    TMP DP  RH WIND       PRES   REMARKS
ALBUQUERQUE    CLOUDY    24  12  60 N7        30.46F WCI  16
EL PASO        CLEAR     21   5  50 S6        30.47R WCI  13
$$


........................KEY........................
SKY/WX - SKY CONDITION/WEATHER
TMP    - TEMPERATURE IN FAHRENHEIT
DP     - DEW POINT IN FAHRENHEIT
RH     - RELATIVE HUMIDITY IN PERCENT
WIND   - DIRECTION AND SPEED IN MILES PER HOUR (MPH)
VRB    - VARIABLE WIND DIRECTION
PRES   - MEAN SEA LEVEL PRESSURE IN INCHES OF MERCURY
         F - FALLING PRESSURE   R - RISING PRESSURE
         S - STEADY PRESSURE
VSB    - VISIBILITY IN MILES
HX     - HEAT INDEX IN FAHRENHEIT
WCI    - WIND CHILL INDEX IN FAHRENHEIT
TC     - TEMPERATURE IN CELSIUS WHICH IS ALSO KNOWN AS
         TEMPERATURE IN CENTIGRADE
AFB    - AIR FORCE BASE
         LUKE AFB IS LUKE AIR FORCE BASE
         DAVIS-MONTHAN IS DAVIS-MONTHAN AIR FORCE BASE
NAS    - NAVAL AIR STATION
         EL CENTRO NAS IS EL CENTRO NAVAL AIR STATION
N/A    - NOT AVAILABLE





USA.gov is the U.S. government's official web portal to all federal, state and local government web resources and services.